N5CSU Weather Reports


time (UTC)temp
F
wind
direction
speed
knots
gust
knots
rain 1hr
in
rain 24hr
in
rain mn
in
humidity
%
barometer
mb
20260904090938 78 209 0.0 0.0 0.00 0.00 0.00 85 1013.8
20260904090434 78 208 0.0 0.0 0.00 0.00 0.00 85 1013.7
20260904085929 78 187 0.0 0.0 0.00 0.00 0.00 85 1013.7
20260904085424 78 199 0.0 0.0 0.00 0.00 0.00 85 1013.6
20260904084919 78 201 0.0 0.0 0.00 0.00 0.00 85 1013.5
20260904084416 78 200 0.0 0.0 0.00 0.00 0.00 85 1013.5
20260904083910 78 201 0.0 0.0 0.00 0.00 0.00 85 1013.7
20260904083407 78 200 0.0 0.0 0.00 0.00 0.00 84 1013.6
20260904082857 78 196 0.0 0.0 0.00 0.00 0.00 84 1013.6
20260904082357 78 198 0.0 0.0 0.00 0.00 0.00 84 1013.6
20260904081852 78 194 0.0 0.0 0.00 0.00 0.00 84 1013.4
20260904081347 78 191 0.0 0.0 0.00 0.00 0.00 84 1013.4
20260904080843 78 189 0.0 0.0 0.00 0.00 0.00 84 1013.4
20260904080339 78 198 0.0 0.0 0.00 0.00 0.00 84 1013.4
20260904075835 78 198 0.0 0.0 0.00 0.00 0.00 83 1013.7
20260904075330 78 189 0.0 0.0 0.00 0.00 0.00 84 1013.4
20260904074829 78 202 0.0 0.0 0.00 0.00 0.00 83 1013.4
20260904074324 78 202 0.0 0.0 0.00 0.00 0.00 83 1013.3
20260904073819 78 194 0.0 0.0 0.00 0.00 0.00 83 1013.2
20260904073315 78 204 0.0 0.0 0.00 0.00 0.00 83 1013.4
20260904072811 79 200 0.0 0.0 0.00 0.00 0.00 83 1013.5
20260904072310 79 200 0.0 0.0 0.00 0.00 0.00 83 1013.5
20260904071805 79 202 0.0 0.0 0.00 0.00 0.00 83 1013.4
20260904071300 79 203 0.0 0.0 0.00 0.00 0.00 82 1013.3
20260904070755 79 204 0.0 0.0 0.00 0.00 0.00 82 1013.4
20260904070254 79 204 0.0 0.0 0.00 0.00 0.00 82 1013.3
20260904065749 79 209 0.0 0.0 0.00 0.00 0.00 82 1013.7
20260904065246 79 207 0.0 0.0 0.00 0.00 0.00 81 1013.8
20260904064745 79 189 0.0 0.0 0.00 0.00 0.00 81 1013.8
20260904064241 80 203 0.0 0.0 0.00 0.00 0.00 81 1013.8
20260904063737 80 202 0.0 0.0 0.00 0.00 0.00 80 1013.6
20260904063233 80 195 0.0 0.0 0.00 0.00 0.00 80 1013.9
20260904062728 80 202 0.0 0.0 0.00 0.00 0.00 80 1013.6
20260904062224 80 224 0.0 0.0 0.00 0.00 0.00 79 1013.6
20260904061720 80 201 0.0 0.0 0.00 0.00 0.00 79 1013.7
20260904061216 80 205 0.0 0.0 0.00 0.00 0.00 79 1013.6
20260904060713 80 197 0.0 0.0 0.00 0.00 0.00 78 1013.6
20260904060208 80 210 0.0 0.0 0.00 0.00 0.00 78 1013.5
20260904055703 80 235 0.0 0.0 0.00 0.00 0.00 78 1013.8
20260904055158 80 214 0.0 0.0 0.00 0.00 0.00 78 1013.7
20260904054654 80 195 0.0 0.0 0.00 0.00 0.00 77 1013.7
20260904054150 80 202 0.0 0.0 0.00 0.00 0.00 77 1013.8
20260904053650 81 203 0.0 0.0 0.00 0.00 0.00 77 1013.6
20260904053144 81 129 0.0 0.0 0.00 0.00 0.00 77 1013.6
20260904052641 81 358 0.0 0.0 0.00 0.00 0.00 77 1013.6
20260904052136 81 201 0.0 0.0 0.00 0.00 0.00 76 1013.6
20260904051633 81 191 0.0 0.0 0.00 0.00 0.00 76 1013.7
20260904051132 81 207 0.0 0.0 0.00 0.00 0.00 76 1013.6
20260904050628 81 195 0.0 0.0 0.00 0.00 0.00 75 1013.7
20260904050125 81 217 0.0 0.0 0.00 0.00 0.00 75 1013.6
20260904045624 81 199 0.0 0.0 0.00 0.00 0.00 75 1013.5
20260904045119 81 209 0.0 0.0 0.00 0.00 0.00 75 1013.7
20260904044614 81 184 0.0 0.0 0.00 0.00 0.00 75 1013.8
20260904044111 81 192 0.0 0.0 0.00 0.00 0.00 75 1013.5
20260904043607 81 193 0.0 0.0 0.00 0.00 0.00 76 1013.8
20260904043103 81 203 0.0 0.0 0.00 0.00 0.00 75 1013.7
20260904042559 81 179 0.9 0.9 0.00 0.00 0.00 75 1013.6
20260904042054 81 226 0.0 0.0 0.00 0.00 0.00 75 1013.9
20260904041550 81 203 0.0 0.0 0.00 0.00 0.00 74 1013.8
20260904041046 82 214 0.0 0.0 0.00 0.00 0.00 74 1013.7
20260904040546 82 180 0.0 0.9 0.00 0.00 0.00 74 1013.8
20260904040042 82 200 0.0 0.0 0.00 0.00 0.00 73 1013.7
20260904035537 82 198 0.0 0.0 0.00 0.00 0.00 73 1013.7
20260904035036 82 185 0.0 0.0 0.00 0.00 0.00 72 1013.6
20260904034531 82 196 0.0 0.0 0.00 0.00 0.00 72 1013.7
20260904034027 82 199 0.0 0.9 0.00 0.00 0.00 71 1013.9
20260904033523 82 190 0.0 0.0 0.00 0.00 0.00 70 1014.0
20260904033020 82 197 0.0 0.0 0.00 0.00 0.00 70 1013.8
20260904032514 82 84 0.9 1.7 0.00 0.00 0.00 69 1013.7
20260904032014 82 204 0.0 0.0 0.00 0.00 0.00 69 1013.9
20260904031509 82 203 0.0 0.0 0.00 0.00 0.00 69 1013.7
20260904031005 82 211 0.0 0.0 0.00 0.00 0.00 69 1013.5
20260904030500 82 200 0.0 0.0 0.00 0.00 0.00 69 1013.7
20260904025955 82 193 0.0 0.0 0.00 0.00 0.00 69 1013.6
20260904025451 82 198 0.0 0.0 0.00 0.00 0.00 69 1013.7
20260904024951 82 219 0.0 0.0 0.00 0.00 0.00 68 1013.5
20260904024446 82 222 0.0 0.9 0.00 0.00 0.00 68 1013.6
20260904023942 82 210 0.0 0.0 0.00 0.00 0.00 68 1013.3
20260904023438 82 202 0.0 0.0 0.00 0.00 0.00 69 1013.1
20260904022938 83 187 0.0 0.9 0.00 0.00 0.00 68 1013.2
20260904022434 83 198 0.0 0.0 0.00 0.00 0.00 68 1013.0
20260904021931 83 172 0.0 0.9 0.00 0.00 0.00 68 1012.9
20260904021426 83 185 0.0 0.0 0.00 0.00 0.00 68 1012.8
20260904020921 83 198 0.0 0.0 0.00 0.00 0.00 68 1012.7
20260904020417 83 181 0.0 0.0 0.00 0.00 0.00 68 1012.8
20260904015915 83 187 0.0 0.0 0.00 0.00 0.00 68 1012.7
20260904015411 83 192 0.0 0.0 0.00 0.00 0.00 69 1012.6
20260904014909 84 210 0.0 0.0 0.00 0.00 0.00 70 1012.6
20260904014405 84 210 0.0 0.0 0.00 0.00 0.00 71 1012.4
20260904013900 84 203 0.0 0.0 0.00 0.00 0.00 73 1012.4
20260904013356 84 195 0.0 0.0 0.00 0.00 0.00 73 1012.4
20260904012851 84 195 0.0 0.0 0.00 0.00 0.00 72 1012.5
20260904012346 84 198 0.0 0.0 0.00 0.00 0.00 72 1012.4
20260904011845 84 202 0.0 0.0 0.00 0.00 0.00 72 1012.4
20260904011341 85 216 0.9 0.9 0.00 0.00 0.00 71 1012.2
20260904010836 85 203 0.0 0.9 0.00 0.00 0.00 72 1012.1
20260904010332 85 191 0.0 0.9 0.00 0.00 0.00 71 1012.1
20260904005827 85 195 0.9 0.9 0.00 0.00 0.00 70 1012.1
20260904005323 85 185 0.0 0.0 0.00 0.00 0.00 69 1012.0
20260904004817 86 154 0.9 0.9 0.00 0.00 0.00 68 1012.1
20260904004314 86 199 0.0 0.0 0.00 0.00 0.00 67 1012.0
20260904003814 86 99 0.0 0.0 0.00 0.00 0.00 66 1012.1
20260904003310 86 213 0.0 0.0 0.00 0.00 0.00 65 1012.1
20260904002805 86 187 0.0 0.0 0.00 0.00 0.00 64 1012.0
20260904002301 87 240 0.0 0.0 0.00 0.00 0.00 64 1011.9
20260904001800 87 188 0.9 1.7 0.00 0.00 0.00 65 1012.0
20260904001255 87 198 0.0 0.0 0.00 0.00 0.00 65 1011.9
20260904000751 87 203 0.0 0.0 0.00 0.00 0.00 64 1011.9
20260904000248 87 200 0.0 0.0 0.00 0.00 0.00 66 1011.7
20260903235745 87 199 0.0 0.0 0.00 0.00 0.00 66 1011.8
20260903235242 87 196 0.0 0.0 0.00 0.00 0.00 66 1011.7
20260903234741 88 195 0.0 0.0 0.00 0.00 0.00 65 1011.9
20260903234237 88 168 0.9 1.7 0.00 0.00 0.00 65 1011.8
20260903233733 88 163 0.9 1.7 0.00 0.00 0.00 64 1011.9
20260903233229 88 113 0.9 0.9 0.00 0.00 0.00 64 1011.6
20260903232727 88 176 0.0 0.9 0.00 0.00 0.00 64 1011.7
20260903232224 89 212 0.0 0.0 0.00 0.00 0.00 65 1011.5
20260903231723 89 175 0.0 0.0 0.00 0.00 0.00 66 1011.6
20260903231218 89 189 0.0 0.0 0.00 0.00 0.00 65 1011.5
20260903230713 89 228 0.0 0.9 0.00 0.00 0.00 65 1011.5
20260903230208 90 181 1.7 1.7 0.00 0.00 0.00 63 1011.7
20260903225705 90 173 0.0 0.0 0.00 0.00 0.00 63 1011.6
20260903225201 90 192 0.9 0.9 0.00 0.00 0.00 60 1011.4
20260903224657 90 204 0.0 0.9 0.00 0.00 0.00 59 1011.3
20260903224152 91 180 1.7 1.7 0.00 0.00 0.00 59 1011.5
20260903223648 91 203 0.0 0.0 0.00 0.00 0.00 59 1011.3
20260903223146 91 191 0.0 0.0 0.00 0.00 0.00 60 1011.3
20260903222646 91 212 0.0 0.9 0.00 0.00 0.00 60 1011.3
20260903222144 91 196 0.9 1.7 0.00 0.00 0.00 59 1011.4
20260903221640 91 65 0.0 0.0 0.00 0.00 0.00 59 1011.2
20260903221138 91 184 0.0 0.0 0.00 0.00 0.00 60 1011.3
20260903220637 91 201 0.9 1.7 0.00 0.00 0.00 60 1011.3
20260903220132 91 198 0.0 0.0 0.00 0.00 0.00 59 1011.5
20260903215631 91 207 0.0 0.0 0.00 0.00 0.00 61 1011.6
20260903215126 90 208 1.7 1.7 0.00 0.00 0.00 63 1011.5
20260903214625 91 177 0.0 0.0 0.00 0.00 0.00 62 1011.7
20260903214121 91 205 0.0 0.0 0.00 0.00 0.00 63 1011.7
20260903213616 90 47 0.9 0.9 0.00 0.00 0.00 62 1011.8
20260903213111 90 189 0.0 0.9 0.00 0.00 0.00 63 1012.0
20260903212607 90 256 0.0 0.0 0.00 0.00 0.00 63 1012.1
20260903212102 90 187 0.0 0.9 0.00 0.00 0.00 64 1011.9
20260903211556 90 205 0.0 0.0 0.00 0.00 0.00 64 1012.1
20260903211053 89 199 0.0 0.0 0.00 0.00 0.00 64 1012.0
20260903210548 90 204 0.0 0.0 0.00 0.00 0.00 64 1012.2
20260903210045 90 56 2.6 3.5 0.00 0.00 0.00 63 1011.9
20260903205543 90 203 0.0 0.0 0.00 0.00 0.00 64 1012.1
20260903205038 90 169 0.0 0.9 0.00 0.00 0.00 63 1012.1
20260903204534 90 22 0.9 0.9 0.00 0.00 0.00 64 1012.1
20260903204029 90 206 0.0 0.9 0.00 0.00 0.00 64 1012.3
20260903203525 89 179 0.0 0.9 0.00 0.00 0.00 67 1012.4
20260903203024 89 183 0.0 0.0 0.00 0.00 0.00 67 1012.7
20260903202520 89 237 0.0 0.9 0.00 0.00 0.00 66 1012.7
20260903202015 89 175 0.0 0.9 0.00 0.00 0.00 66 1012.5
20260903201510 90 210 0.0 0.9 0.00 0.00 0.00 65 1012.5
20260903201009 90 197 0.9 1.7 0.00 0.00 0.00 64 1012.7
20260903200504 90 199 0.0 0.0 0.00 0.00 0.00 65 1012.7
20260903195959 89 194 0.0 0.0 0.00 0.00 0.00 66 1012.6
20260903195455 89 226 0.9 1.7 0.00 0.00 0.00 66 1012.4
20260903194950 89 200 0.9 0.9 0.00 0.00 0.00 66 1012.9
20260903194445 89 242 0.9 0.9 0.00 0.00 0.00 67 1012.8
20260903193941 89 188 0.9 1.7 0.00 0.00 0.00 66 1012.7
20260903193437 89 173 0.0 0.9 0.00 0.00 0.00 67 1012.8
20260903192932 88 163 0.9 0.9 0.00 0.00 0.00 68 1013.1
20260903192429 88 207 0.0 0.0 0.00 0.00 0.00 68 1013.0
20260903191924 87 206 0.0 0.9 0.00 0.00 0.00 70 1013.1
20260903191420 87 182 0.9 1.7 0.00 0.00 0.00 70 1013.2
20260903190919 87 196 0.0 0.0 0.00 0.00 0.00 71 1013.1
20260903190414 87 208 0.0 0.0 0.00 0.00 0.00 70 1013.3
20260903185913 87 186 0.9 0.9 0.00 0.00 0.00 70 1013.2
20260903185409 87 187 0.9 0.9 0.00 0.00 0.00 70 1013.2
20260903184904 87 157 0.9 0.9 0.00 0.00 0.00 71 1013.4
20260903184401 86 208 0.0 0.0 0.00 0.00 0.00 71 1013.5
20260903183900 87 186 0.9 0.9 0.00 0.00 0.00 71 1013.6
20260903183355 86 230 0.0 0.9 0.00 0.00 0.00 72 1013.6
20260903182855 86 186 0.9 1.7 0.00 0.00 0.00 73 1013.8
20260903182353 85 196 0.0 0.9 0.00 0.00 0.00 74 1013.9
20260903181848 85 184 0.0 0.9 0.00 0.00 0.00 73 1013.9
20260903181343 85 209 0.9 0.9 0.00 0.00 0.00 74 1014.0
20260903180838 85 192 0.0 0.0 0.00 0.00 0.00 74 1014.0
20260903180337 84 233 1.7 2.6 0.00 0.00 0.00 74 1014.1
20260903175831 84 188 0.9 0.9 0.00 0.00 0.00 75 1014.2
20260903175330 84 200 0.9 0.9 0.00 0.00 0.00 76 1014.3
20260903174825 84 181 1.7 2.6 0.00 0.00 0.00 76 1014.3
20260903174321 84 213 0.9 1.7 0.00 0.00 0.00 76 1014.2
20260903173815 83 209 0.0 0.9 0.00 0.00 0.00 77 1014.3
20260903173311 83 203 0.0 0.9 0.00 0.00 0.00 77 1014.5
20260903172807 83 210 0.0 0.0 0.00 0.00 0.00 78 1014.6
20260903172301 82 230 0.0 0.0 0.00 0.00 0.00 80 1014.6
20260903171756 83 334 0.9 1.7 0.00 0.00 0.00 80 1014.9
20260903171252 83 216 0.0 0.0 0.00 0.00 0.00 80 1014.7
20260903170750 83 177 1.7 1.7 0.00 0.00 0.00 80 1014.6
20260903170246 83 196 0.0 0.0 0.00 0.00 0.00 79 1014.8
20260903165744 83 211 0.9 1.7 0.00 0.00 0.00 79 1014.3
20260903165239 83 174 0.9 1.7 0.00 0.00 0.00 79 1014.4
20260903164739 83 187 0.0 0.9 0.00 0.00 0.00 80 1014.4
20260903164235 83 195 0.0 0.0 0.00 0.00 0.00 80 1014.5
20260903163734 84 172 0.0 0.0 0.00 0.00 0.00 80 1014.4
20260903163231 83 186 0.0 0.0 0.00 0.00 0.00 80 1014.3
20260903162726 83 204 0.0 0.0 0.00 0.00 0.00 81 1014.3
20260903162222 83 194 0.0 0.0 0.00 0.00 0.00 82 1014.3
20260903161718 83 160 0.0 0.0 0.00 0.00 0.00 82 1014.4
20260903161213 82 185 0.0 0.0 0.00 0.00 0.00 83 1014.2
20260903160709 82 195 0.0 0.0 0.00 0.00 0.00 84 1014.1
20260903160202 82 190 0.0 0.0 0.00 0.00 0.00 83 1014.2
20260903155701 82 207 0.0 0.0 0.00 0.00 0.00 84 1014.3
20260903155156 82 215 0.0 0.0 0.00 0.00 0.00 84 1014.2
20260903154652 82 187 0.0 0.0 0.00 0.00 0.00 85 1014.3
20260903154148 82 198 0.0 0.0 0.00 0.00 0.00 85 1014.3
20260903153644 82 175 0.0 0.0 0.00 0.00 0.00 86 1014.3
20260903153139 82 196 0.0 0.0 0.00 0.00 0.00 85 1014.3
20260903152635 82 189 0.0 0.0 0.00 0.00 0.00 85 1014.0
20260903152131 82 208 0.0 0.0 0.00 0.00 0.00 86 1014.1
20260903151631 82 231 0.0 0.0 0.00 0.00 0.00 86 1014.2
20260903151125 82 212 0.0 0.0 0.00 0.00 0.00 86 1014.1
20260903150620 81 185 0.0 0.0 0.00 0.00 0.00 86 1014.3
20260903150115 81 202 0.0 0.0 0.00 0.00 0.00 86 1014.3
20260903145615 81 203 0.9 0.9 0.00 0.00 0.00 86 1014.1
20260903145110 81 198 0.0 0.0 0.00 0.00 0.00 86 1014.4
20260903144609 81 250 0.0 0.0 0.00 0.00 0.00 86 1014.1
20260903144105 81 192 0.0 0.0 0.00 0.00 0.00 86 1014.3
20260903143601 81 199 0.0 0.0 0.00 0.00 0.00 86 1014.2
20260903143057 81 195 0.0 0.0 0.00 0.00 0.00 86 1014.2
20260903142552 81 221 0.0 0.0 0.00 0.00 0.00 86 1014.2
20260903142049 81 179 0.9 0.9 0.00 0.00 0.00 86 1014.1
20260903141544 80 174 0.0 0.0 0.00 0.00 0.00 87 1014.3
20260903141039 80 178 0.0 0.0 0.00 0.00 0.00 87 1014.2
20260903140534 80 161 0.0 0.0 0.00 0.00 0.00 87 1014.2
20260903140029 80 191 0.9 0.9 0.00 0.00 0.00 88 1014.3
20260903135525 79 195 0.0 0.0 0.00 0.00 0.00 88 1014.5
20260903135025 79 190 0.0 0.0 0.00 0.00 0.00 88 1014.3
20260903134524 79 189 0.0 0.0 0.00 0.00 0.00 88 1014.5
20260903134020 79 89 0.0 0.0 0.00 0.00 0.00 88 1014.4
20260903133518 79 189 0.0 0.0 0.00 0.00 0.00 88 1014.4
20260903133013 79 181 0.0 0.0 0.00 0.00 0.00 88 1014.2
20260903132508 79 195 0.0 0.0 0.00 0.00 0.00 88 1014.1
20260903132004 79 219 0.0 0.0 0.00 0.00 0.00 88 1014.2
20260903131458 79 228 0.0 0.0 0.00 0.00 0.00 88 1014.0
20260903130956 79 226 0.0 0.0 0.00 0.00 0.00 88 1013.9
20260903130452 79 198 0.0 0.0 0.00 0.00 0.00 88 1013.8
20260903125951 79 211 0.0 0.0 0.00 0.00 0.00 88 1013.9
20260903125450 79 210 0.0 0.0 0.00 0.00 0.00 88 1013.9
20260903124951 79 195 0.0 0.0 0.00 0.00 0.00 88 1013.8
20260903124446 79 199 0.0 0.0 0.00 0.00 0.00 88 1014.0
20260903123945 79 215 0.0 0.0 0.00 0.00 0.00 88 1014.1
20260903123439 79 189 0.0 0.9 0.00 0.00 0.00 88 1013.9
20260903122938 79 193 0.0 0.0 0.00 0.00 0.00 88 1013.7
20260903122433 79 208 0.0 0.9 0.00 0.00 0.00 88 1013.8
20260903121932 79 188 0.0 0.0 0.00 0.00 0.00 88 1013.7
20260903121427 79 186 0.0 0.0 0.00 0.00 0.00 88 1013.8
20260903120923 79 191 0.0 0.0 0.00 0.00 0.00 88 1013.6
20260903120421 79 191 0.0 0.0 0.00 0.00 0.00 88 1013.6
20260903115920 79 228 0.0 0.0 0.00 0.00 0.00 88 1013.5
20260903115414 78 210 0.0 0.0 0.00 0.00 0.00 88 1013.4
20260903114909 78 183 0.0 0.0 0.00 0.00 0.00 88 1013.2
20260903114405 78 194 0.0 0.0 0.00 0.00 0.00 87 1013.3
20260903113901 78 200 0.0 0.0 0.00 0.00 0.00 87 1013.5
20260903113356 78 199 0.0 0.0 0.00 0.00 0.00 87 1013.5
20260903112852 78 207 0.0 0.0 0.00 0.00 0.00 87 1013.4
20260903112347 78 197 0.0 0.0 0.00 0.00 0.00 87 1013.6
20260903111846 78 198 0.0 0.0 0.00 0.00 0.00 87 1013.3
20260903111345 78 210 0.0 0.0 0.00 0.00 0.00 87 1013.5
20260903110842 78 218 0.0 0.0 0.00 0.00 0.00 87 1013.6
20260903110337 78 190 0.0 0.0 0.00 0.00 0.00 86 1013.6
20260903105833 78 195 0.0 0.0 0.00 0.00 0.00 87 1013.6
20260903105332 78 203 0.0 0.0 0.00 0.00 0.00 87 1013.4
20260903104826 78 191 0.0 0.0 0.00 0.00 0.00 87 1013.4
20260903104321 78 187 0.0 0.0 0.00 0.00 0.00 87 1013.3
20260903103819 78 196 0.0 0.0 0.00 0.00 0.00 87 1013.1
20260903103314 78 191 0.9 0.9 0.00 0.00 0.00 87 1013.2
20260903102809 78 209 0.0 0.0 0.00 0.00 0.00 88 1013.1
20260903102305 78 206 0.0 0.0 0.00 0.00 0.00 87 1013.1
20260903101802 78 206 0.0 0.0 0.00 0.00 0.00 87 1013.1
20260903101258 78 188 0.0 0.0 0.00 0.00 0.00 87 1013.2
20260903100754 78 185 0.0 0.0 0.00 0.00 0.00 87 1013.2
20260903100248 78 208 0.0 0.0 0.00 0.00 0.00 86 1013.3
20260903095745 79 194 0.0 0.0 0.00 0.00 0.00 86 1013.4
20260903095240 79 196 0.0 0.0 0.00 0.00 0.00 86 1013.2
20260903094735 79 198 0.0 0.0 0.00 0.00 0.00 85 1013.3
20260903094230 78 188 0.0 0.0 0.00 0.00 0.00 85 1013.3
20260903093726 78 196 0.0 0.0 0.00 0.00 0.00 86 1013.4
20260903093221 78 196 0.0 0.0 0.00 0.00 0.00 86 1013.3
20260903092720 78 196 0.0 0.0 0.00 0.00 0.00 86 1013.4
20260903092215 78 196 0.0 0.0 0.00 0.00 0.00 86 1013.2
20260903091714 78 196 0.0 0.0 0.00 0.00 0.00 86 1013.4
20260903091209 78 196 0.0 0.0 0.00 0.00 0.00 86 1013.2